This is the latest recevied weather packets stored in our database for station/object N1UNH. If no packets are shown the sender has not sent any weather packets the latest 10 day(s).
| Time | Temp. | Humidity | Pressure | Rain* | Wind** | Luminosity | Snow |
|---|---|---|---|---|---|---|---|
| 1778073549 | 16.67° C | 80% | 1013.8 hPa | 0 mm | - | 90 W/m² | - |
| 1778073245 | 16.67° C | 79% | 1013.8 hPa | 0 mm | - | 111 W/m² | - |
| 1778072942 | 16.67° C | 81% | 1014.2 hPa | 0 mm | - | 108 W/m² | - |
| 1778072638 | 16.11° C | 82% | 1013.9 hPa | 0 mm | - | 87 W/m² | - |
| 1778072336 | 16.11° C | 81% | 1013.8 hPa | 0 mm | - | 81 W/m² | - |
| 1778072035 | 16.11° C | 81% | 1014.2 hPa | 0 mm | - | 86 W/m² | - |
| 1778071733 | 16.11° C | 83% | 1014 hPa | 0 mm | - | 91 W/m² | - |
| 1778071429 | 15.56° C | 82% | 1014.1 hPa | 0 mm | - | 92 W/m² | - |
| 1778071127 | 15.56° C | 83% | 1013.9 hPa | 0 mm | - | 74 W/m² | - |
| 1778070825 | 15.56° C | 84% | 1014 hPa | 0 mm | - | 91 W/m² | - |
| 1778070522 | 15.56° C | 83% | 1014.1 hPa | 0 mm | - | 101 W/m² | - |
| 1778070219 | 15.56° C | 84% | 1014 hPa | 0 mm | - | 94 W/m² | - |
| 1778069917 | 15° C | 84% | 1013.9 hPa | 0 mm | - | 86 W/m² | - |
| 1778069614 | 15° C | 83% | 1014 hPa | 0 mm | - | 94 W/m² | - |
| 1778069311 | 15° C | 82% | 1014.1 hPa | 0 mm | - | 64 W/m² | - |
| 1778069009 | 15° C | 85% | 1014.1 hPa | 0 mm | - | 55 W/m² | - |
| 1778068706 | 15° C | 84% | 1014.2 hPa | 0 mm | - | 78 W/m² | - |
| 1778068404 | 14.44° C | 86% | 1014.4 hPa | 0 mm | - | 81 W/m² | - |
| 1778068102 | 14.44° C | 87% | 1014.4 hPa | 0 mm | - | 93 W/m² | - |
| 1778067799 | 13.89° C | 88% | 1014.2 hPa | 0 mm | - | 100 W/m² | - |
| 1778067498 | 13.89° C | 88% | 1014.4 hPa | 0 mm | - | 84 W/m² | - |
| 1778067195 | 13.89° C | 87% | 1014.2 hPa | 0 mm | - | 58 W/m² | - |
| 1778066891 | 13.89° C | 86% | 1014.2 hPa | 0 mm | - | 48 W/m² | - |
| 1778066589 | 13.33° C | 87% | 1014.3 hPa | 0 mm | - | 70 W/m² | - |
| 1778066286 | 13.33° C | 87% | 1014.4 hPa | 0 mm | - | 58 W/m² | - |
* Rain latest hour (hover to see other rain measurements)
** Current wind speed in m/s (hover to see current wind gust speed)